GEFSGL_prec_meanprecacc_234.txt.gz
Total_Precipitation_Accumulation
1.07 1.17 1.20 1.03 0.79 0.68 0.66 0.64 0.62 0.64 0.68 0.74 0.69 0.66 0.72 0.78 0.74 0.83 0.93 1.03 1.15 1.26 1.26 1.32 1.40 1.39 1.51 1.56 1.65 1.73 1.78 1.73 1.51 1.32 1.19 1.20 1.22 1.20 1.17 1.08 1.13 1.18 1.07
0.99 0.95 0.79 0.63 0.53 0.49 0.44 0.39 0.37 0.39 0.40 0.46 0.46 0.45 0.53 0.65 0.67 0.72 0.76 0.77 0.88 1.00 1.07 1.12 1.12 1.13 1.25 1.34 1.40 1.50 1.63 1.66 1.56 1.38 1.27 1.20 1.10 1.11 1.26 1.31 1.29 1.21 1.21
0.63 0.64 0.56 0.46 0.43 0.38 0.34 0.33 0.31 0.33 0.33 0.35 0.37 0.39 0.42 0.51 0.63 0.66 0.67 0.65 0.66 0.70 0.76 0.81 0.86 0.92 1.09 1.16 1.19 1.29 1.44 1.49 1.58 1.46 1.38 1.31 1.15 1.08 1.25 1.27 1.33 1.50 1.41
0.41 0.44 0.42 0.36 0.35 0.34 0.34 0.36 0.32 0.31 0.32 0.30 0.28 0.29 0.37 0.48 0.56 0.64 0.65 0.62 0.60 0.63 0.66 0.67 0.67 0.71 0.82 0.94 1.03 1.21 1.38 1.50 1.55 1.49 1.47 1.43 1.35 1.24 1.31 1.41 1.47 1.57 1.60
0.31 0.32 0.37 0.37 0.35 0.31 0.32 0.31 0.30 0.30 0.28 0.23 0.21 0.23 0.30 0.37 0.43 0.56 0.60 0.60 0.62 0.60 0.62 0.64 0.64 0.63 0.65 0.69 0.68 0.87 1.09 1.32 1.42 1.47 1.49 1.52 1.47 1.42 1.36 1.49 1.56 1.68 1.78
0.22 0.22 0.29 0.34 0.33 0.32 0.30 0.28 0.27 0.28 0.26 0.23 0.21 0.21 0.23 0.22 0.36 0.43 0.49 0.57 0.63 0.67 0.66 0.67 0.64 0.60 0.64 0.63 0.61 0.62 0.74 0.91 1.10 1.21 1.29 1.35 1.41 1.51 1.62 1.63 1.59 1.65 1.71
0.21 0.23 0.28 0.29 0.25 0.24 0.24 0.21 0.18 0.21 0.22 0.22 0.20 0.20 0.22 0.22 0.23 0.25 0.37 0.52 0.64 0.68 0.66 0.76 0.79 0.71 0.70 0.72 0.73 0.66 0.60 0.62 0.78 0.99 1.12 1.17 1.25 1.33 1.57 1.61 1.62 1.65 1.57
0.21 0.22 0.25 0.26 0.25 0.22 0.21 0.18 0.15 0.16 0.19 0.21 0.25 0.25 0.22 0.18 0.18 0.17 0.24 0.40 0.55 0.60 0.59 0.70 0.94 0.95 0.83 0.77 0.81 0.89 0.81 0.66 0.66 0.72 0.90 1.04 1.09 1.23 1.55 1.77 1.72 1.51 1.47
0.23 0.21 0.22 0.23 0.25 0.24 0.20 0.19 0.17 0.19 0.21 0.19 0.21 0.24 0.22 0.19 0.19 0.18 0.21 0.33 0.44 0.48 0.50 0.62 0.78 0.91 0.84 0.78 0.76 0.83 0.87 0.77 0.72 0.74 0.71 0.79 0.93 1.10 1.36 1.61 1.73 1.68 1.52
0.22 0.23 0.23 0.21 0.20 0.23 0.22 0.21 0.20 0.22 0.24 0.23 0.22 0.20 0.19 0.18 0.18 0.19 0.20 0.26 0.31 0.30 0.37 0.54 0.71 0.68 0.62 0.67 0.77 0.86 0.95 0.80 0.70 0.80 0.79 0.82 0.85 1.04 1.37 1.57 1.70 1.69 1.57
0.25 0.28 0.29 0.26 0.24 0.28 0.29 0.27 0.25 0.25 0.27 0.27 0.25 0.22 0.21 0.20 0.21 0.22 0.23 0.23 0.27 0.27 0.32 0.46 0.51 0.48 0.46 0.54 0.64 0.75 0.89 0.76 0.76 0.91 0.95 0.93 1.00 1.05 1.17 1.32 1.53 1.65 1.58
0.29 0.31 0.33 0.33 0.33 0.33 0.34 0.34 0.33 0.32 0.32 0.34 0.34 0.31 0.28 0.26 0.24 0.24 0.27 0.28 0.30 0.31 0.34 0.38 0.38 0.36 0.38 0.42 0.45 0.55 0.66 0.74 0.82 0.96 1.03 1.01 0.97 1.03 1.09 1.13 1.23 1.35 1.35
0.33 0.33 0.34 0.36 0.36 0.35 0.35 0.36 0.36 0.33 0.32 0.33 0.35 0.35 0.36 0.31 0.27 0.25 0.26 0.29 0.31 0.32 0.33 0.36 0.37 0.38 0.41 0.41 0.41 0.47 0.60 0.79 0.97 0.98 0.91 0.88 0.92 0.97 0.98 1.09 1.17 1.21 1.23
0.36 0.37 0.36 0.35 0.34 0.34 0.34 0.34 0.32 0.32 0.31 0.32 0.35 0.35 0.34 0.33 0.27 0.25 0.27 0.29 0.32 0.34 0.37 0.39 0.39 0.41 0.41 0.39 0.45 0.56 0.70 0.90 1.00 0.92 0.87 0.75 0.76 0.88 0.94 0.95 0.99 1.01 1.06
0.38 0.38 0.37 0.34 0.31 0.31 0.31 0.31 0.31 0.30 0.33 0.35 0.37 0.40 0.36 0.32 0.33 0.35 0.34 0.31 0.30 0.30 0.35 0.41 0.45 0.49 0.52 0.57 0.66 0.74 0.76 0.80 0.86 0.78 0.82 0.75 0.69 0.75 0.79 0.80 0.82 0.79 0.79
0.37 0.36 0.33 0.34 0.32 0.29 0.29 0.31 0.36 0.38 0.40 0.35 0.35 0.36 0.35 0.32 0.36 0.32 0.33 0.34 0.33 0.35 0.40 0.45 0.52 0.59 0.63 0.70 0.76 0.76 0.74 0.75 0.78 0.75 0.74 0.72 0.66 0.66 0.67 0.69 0.73 0.76 0.79
0.36 0.33 0.32 0.34 0.34 0.32 0.32 0.33 0.34 0.33 0.33 0.30 0.29 0.29 0.29 0.30 0.28 0.29 0.31 0.32 0.33 0.35 0.37 0.46 0.64 0.69 0.66 0.70 0.74 0.72 0.64 0.58 0.59 0.61 0.59 0.56 0.54 0.55 0.59 0.60 0.63 0.69 0.71
0.42 0.45 0.42 0.38 0.37 0.38 0.38 0.35 0.33 0.32 0.33 0.31 0.27 0.26 0.26 0.26 0.26 0.27 0.30 0.32 0.30 0.30 0.30 0.37 0.51 0.54 0.57 0.63 0.62 0.59 0.53 0.47 0.46 0.45 0.44 0.44 0.46 0.49 0.50 0.54 0.55 0.56 0.61
0.38 0.40 0.41 0.40 0.40 0.40 0.38 0.35 0.32 0.30 0.31 0.33 0.32 0.31 0.32 0.31 0.30 0.31 0.31 0.29 0.27 0.28 0.30 0.36 0.41 0.45 0.46 0.46 0.46 0.45 0.44 0.44 0.44 0.44 0.43 0.44 0.45 0.47 0.46 0.45 0.49 0.54 0.54
0.36 0.41 0.41 0.38 0.36 0.37 0.37 0.36 0.37 0.35 0.35 0.35 0.32 0.34 0.36 0.34 0.31 0.30 0.30 0.30 0.31 0.31 0.30 0.31 0.34 0.35 0.36 0.37 0.38 0.40 0.41 0.43 0.44 0.44 0.43 0.44 0.47 0.49 0.48 0.47 0.47 0.48 0.51
0.34 0.37 0.40 0.39 0.37 0.35 0.37 0.37 0.41 0.41 0.40 0.40 0.41 0.44 0.43 0.37 0.35 0.35 0.35 0.34 0.34 0.33 0.32 0.31 0.31 0.34 0.36 0.39 0.42 0.42 0.40 0.43 0.45 0.45 0.47 0.49 0.51 0.53 0.53 0.52 0.51 0.50 0.51
0.38 0.35 0.35 0.36 0.37 0.36 0.36 0.35 0.35 0.36 0.38 0.41 0.44 0.48 0.47 0.41 0.39 0.40 0.40 0.37 0.34 0.33 0.34 0.34 0.34 0.37 0.40 0.42 0.45 0.47 0.47 0.49 0.52 0.54 0.56 0.57 0.59 0.59 0.58 0.57 0.57 0.58 0.58
0.38 0.37 0.37 0.35 0.34 0.37 0.37 0.34 0.35 0.36 0.38 0.40 0.42 0.42 0.41 0.40 0.41 0.40 0.40 0.40 0.38 0.38 0.40 0.41 0.40 0.41 0.44 0.47 0.49 0.52 0.53 0.55 0.62 0.69 0.72 0.71 0.69 0.68 0.66 0.65 0.64 0.67 0.67
0.33 0.34 0.33 0.33 0.34 0.34 0.32 0.32 0.34 0.34 0.34 0.37 0.39 0.40 0.41 0.41 0.41 0.41 0.42 0.41 0.41 0.40 0.41 0.45 0.46 0.45 0.47 0.50 0.52 0.55 0.58 0.61 0.66 0.72 0.78 0.80 0.76 0.71 0.70 0.67 0.64 0.65 0.70
0.28 0.31 0.31 0.33 0.35 0.35 0.36 0.36 0.35 0.35 0.34 0.35 0.36 0.37 0.38 0.39 0.40 0.42 0.43 0.43 0.43 0.42 0.43 0.47 0.49 0.50 0.50 0.52 0.54 0.56 0.64 0.66 0.64 0.65 0.70 0.75 0.74 0.72 0.71 0.70 0.70 0.70 0.73
0.29 0.29 0.31 0.33 0.33 0.34 0.36 0.36 0.36 0.37 0.37 0.37 0.39 0.42 0.42 0.43 0.42 0.42 0.43 0.43 0.43 0.42 0.41 0.41 0.41 0.44 0.46 0.48 0.50 0.56 0.62 0.58 0.58 0.61 0.64 0.69 0.75 0.76 0.77 0.80 0.79 0.80 0.80

GEFSGL_prec_meanprecacc_240.txt.gz
Total_Precipitation_Accumulation
1.08 1.18 1.22 1.05 0.81 0.70 0.69 0.68 0.66 0.68 0.71 0.77 0.72 0.70 0.76 0.82 0.78 0.87 0.97 1.07 1.18 1.28 1.28 1.34 1.41 1.41 1.53 1.57 1.66 1.74 1.79 1.74 1.51 1.32 1.20 1.20 1.22 1.20 1.17 1.08 1.14 1.18 1.08
1.01 0.96 0.81 0.66 0.55 0.51 0.47 0.42 0.41 0.43 0.45 0.50 0.50 0.48 0.56 0.69 0.71 0.76 0.80 0.81 0.92 1.03 1.09 1.14 1.13 1.14 1.26 1.35 1.42 1.51 1.64 1.68 1.56 1.38 1.27 1.21 1.10 1.11 1.26 1.31 1.29 1.21 1.21
0.65 0.66 0.58 0.48 0.44 0.40 0.36 0.36 0.34 0.37 0.38 0.39 0.40 0.42 0.45 0.54 0.67 0.71 0.71 0.69 0.70 0.74 0.79 0.83 0.88 0.94 1.10 1.17 1.21 1.31 1.46 1.50 1.58 1.46 1.38 1.31 1.15 1.08 1.25 1.27 1.33 1.50 1.41
0.43 0.46 0.44 0.38 0.37 0.36 0.37 0.38 0.35 0.35 0.35 0.33 0.30 0.32 0.40 0.51 0.61 0.68 0.69 0.66 0.64 0.67 0.70 0.70 0.70 0.73 0.83 0.96 1.05 1.23 1.39 1.51 1.56 1.49 1.47 1.43 1.35 1.24 1.31 1.41 1.47 1.57 1.60
0.32 0.34 0.39 0.39 0.38 0.34 0.34 0.33 0.32 0.33 0.31 0.26 0.23 0.25 0.33 0.40 0.46 0.60 0.64 0.64 0.66 0.64 0.66 0.68 0.68 0.66 0.67 0.71 0.70 0.89 1.10 1.33 1.43 1.48 1.49 1.52 1.47 1.42 1.36 1.49 1.56 1.68 1.78
0.22 0.23 0.30 0.36 0.36 0.36 0.32 0.29 0.29 0.30 0.29 0.26 0.22 0.23 0.24 0.24 0.38 0.45 0.52 0.60 0.67 0.72 0.71 0.72 0.69 0.65 0.68 0.66 0.64 0.65 0.77 0.92 1.11 1.22 1.30 1.35 1.42 1.52 1.63 1.63 1.60 1.66 1.72
0.21 0.23 0.29 0.30 0.27 0.28 0.28 0.24 0.20 0.22 0.23 0.23 0.22 0.22 0.24 0.24 0.25 0.28 0.41 0.54 0.67 0.71 0.71 0.81 0.85 0.76 0.76 0.77 0.78 0.70 0.64 0.65 0.80 1.02 1.14 1.19 1.26 1.34 1.58 1.62 1.62 1.66 1.58
0.22 0.23 0.26 0.27 0.26 0.24 0.24 0.21 0.18 0.19 0.21 0.22 0.27 0.27 0.24 0.20 0.20 0.19 0.28 0.44 0.58 0.62 0.62 0.74 0.98 1.00 0.88 0.83 0.85 0.92 0.83 0.68 0.68 0.74 0.92 1.06 1.10 1.25 1.57 1.79 1.74 1.53 1.48
0.25 0.23 0.23 0.24 0.25 0.25 0.21 0.20 0.18 0.22 0.23 0.22 0.23 0.25 0.24 0.21 0.20 0.20 0.24 0.36 0.47 0.51 0.53 0.65 0.80 0.93 0.87 0.83 0.81 0.87 0.91 0.80 0.74 0.76 0.73 0.81 0.94 1.12 1.37 1.62 1.74 1.69 1.53
0.24 0.25 0.25 0.23 0.21 0.23 0.22 0.22 0.21 0.24 0.26 0.25 0.24 0.22 0.20 0.20 0.20 0.21 0.22 0.28 0.34 0.33 0.40 0.56 0.74 0.72 0.66 0.71 0.79 0.89 0.99 0.83 0.74 0.82 0.81 0.83 0.86 1.04 1.38 1.58 1.71 1.71 1.58
0.28 0.31 0.31 0.28 0.26 0.29 0.30 0.28 0.26 0.26 0.29 0.28 0.26 0.24 0.23 0.22 0.23 0.23 0.25 0.25 0.30 0.30 0.35 0.50 0.55 0.51 0.50 0.58 0.67 0.77 0.92 0.79 0.80 0.94 0.97 0.95 1.02 1.06 1.18 1.32 1.54 1.66 1.59
0.31 0.34 0.35 0.35 0.34 0.35 0.35 0.36 0.35 0.33 0.34 0.35 0.35 0.33 0.31 0.29 0.26 0.26 0.29 0.30 0.32 0.33 0.38 0.43 0.43 0.40 0.42 0.46 0.48 0.58 0.70 0.78 0.86 0.99 1.06 1.03 0.99 1.04 1.10 1.13 1.24 1.35 1.35
0.35 0.35 0.36 0.38 0.37 0.36 0.36 0.38 0.38 0.34 0.33 0.35 0.37 0.37 0.38 0.35 0.30 0.28 0.29 0.31 0.34 0.34 0.36 0.41 0.42 0.44 0.45 0.44 0.44 0.51 0.65 0.82 0.99 1.00 0.93 0.90 0.93 0.98 0.99 1.10 1.18 1.21 1.23
0.38 0.39 0.38 0.37 0.37 0.36 0.36 0.36 0.34 0.34 0.32 0.33 0.37 0.37 0.36 0.36 0.30 0.28 0.29 0.32 0.35 0.37 0.40 0.43 0.44 0.47 0.47 0.43 0.49 0.60 0.74 0.92 1.01 0.94 0.89 0.77 0.77 0.89 0.94 0.96 1.00 1.02 1.07
0.40 0.40 0.39 0.36 0.33 0.33 0.33 0.33 0.33 0.31 0.34 0.37 0.39 0.41 0.38 0.34 0.36 0.39 0.37 0.34 0.34 0.35 0.39 0.45 0.49 0.55 0.59 0.63 0.71 0.78 0.79 0.82 0.87 0.80 0.84 0.77 0.70 0.76 0.80 0.81 0.83 0.79 0.80
0.38 0.37 0.36 0.37 0.34 0.31 0.31 0.33 0.37 0.40 0.42 0.36 0.37 0.38 0.37 0.34 0.38 0.36 0.36 0.37 0.37 0.39 0.44 0.48 0.56 0.65 0.71 0.78 0.82 0.80 0.78 0.78 0.80 0.77 0.76 0.74 0.67 0.67 0.68 0.69 0.73 0.77 0.80
0.38 0.35 0.35 0.37 0.36 0.34 0.34 0.35 0.36 0.35 0.34 0.31 0.30 0.31 0.32 0.34 0.31 0.32 0.34 0.35 0.36 0.39 0.41 0.50 0.69 0.74 0.73 0.77 0.81 0.79 0.68 0.62 0.62 0.63 0.62 0.59 0.57 0.57 0.60 0.62 0.64 0.70 0.72
0.47 0.50 0.45 0.40 0.40 0.41 0.41 0.38 0.35 0.35 0.35 0.32 0.28 0.27 0.28 0.29 0.30 0.30 0.34 0.35 0.33 0.33 0.33 0.41 0.55 0.60 0.64 0.70 0.69 0.66 0.58 0.51 0.51 0.49 0.47 0.48 0.50 0.52 0.52 0.55 0.56 0.57 0.62
0.44 0.48 0.49 0.47 0.45 0.43 0.41 0.38 0.36 0.34 0.34 0.35 0.34 0.32 0.34 0.34 0.34 0.35 0.36 0.32 0.31 0.32 0.35 0.41 0.46 0.51 0.54 0.54 0.53 0.52 0.50 0.50 0.50 0.49 0.48 0.48 0.49 0.50 0.49 0.47 0.51 0.55 0.56
0.38 0.44 0.47 0.45 0.45 0.46 0.43 0.40 0.41 0.39 0.39 0.39 0.35 0.36 0.38 0.36 0.34 0.35 0.35 0.34 0.34 0.34 0.34 0.35 0.38 0.41 0.43 0.45 0.47 0.47 0.47 0.49 0.50 0.49 0.48 0.49 0.52 0.53 0.51 0.49 0.48 0.50 0.52
0.36 0.39 0.43 0.43 0.41 0.43 0.46 0.46 0.48 0.46 0.44 0.44 0.44 0.46 0.45 0.39 0.37 0.38 0.38 0.37 0.37 0.36 0.35 0.34 0.34 0.38 0.42 0.45 0.50 0.51 0.49 0.50 0.51 0.51 0.52 0.53 0.55 0.57 0.56 0.55 0.53 0.52 0.52
0.40 0.38 0.38 0.39 0.40 0.39 0.41 0.41 0.43 0.43 0.43 0.45 0.47 0.50 0.50 0.44 0.42 0.42 0.42 0.39 0.36 0.35 0.36 0.36 0.37 0.39 0.43 0.46 0.51 0.54 0.56 0.57 0.59 0.61 0.62 0.61 0.62 0.63 0.61 0.60 0.60 0.60 0.60
0.41 0.41 0.40 0.39 0.37 0.40 0.39 0.37 0.39 0.40 0.43 0.44 0.45 0.45 0.44 0.43 0.43 0.42 0.43 0.42 0.41 0.40 0.42 0.43 0.42 0.43 0.46 0.50 0.54 0.58 0.60 0.61 0.68 0.75 0.78 0.76 0.73 0.71 0.70 0.68 0.67 0.69 0.69
0.36 0.39 0.38 0.38 0.38 0.37 0.35 0.34 0.36 0.37 0.37 0.39 0.41 0.43 0.44 0.44 0.44 0.44 0.45 0.44 0.44 0.43 0.44 0.48 0.48 0.47 0.48 0.52 0.55 0.59 0.64 0.68 0.73 0.78 0.83 0.85 0.80 0.75 0.73 0.71 0.68 0.68 0.73
0.31 0.35 0.36 0.38 0.39 0.39 0.38 0.38 0.37 0.37 0.36 0.37 0.38 0.39 0.40 0.42 0.43 0.45 0.46 0.47 0.46 0.45 0.46 0.49 0.52 0.53 0.53 0.54 0.57 0.60 0.69 0.74 0.72 0.72 0.75 0.80 0.78 0.75 0.74 0.73 0.73 0.73 0.76
0.32 0.32 0.35 0.37 0.38 0.39 0.39 0.39 0.38 0.39 0.40 0.39 0.40 0.44 0.44 0.45 0.45 0.45 0.46 0.46 0.46 0.44 0.43 0.43 0.44 0.47 0.50 0.51 0.53 0.60 0.66 0.64 0.65 0.69 0.71 0.75 0.79 0.79 0.80 0.82 0.81 0.82 0.82

GEFSGL_prec_meanprecacc_246.txt.gz
Total_Precipitation_Accumulation
1.09 1.18 1.22 1.05 0.81 0.71 0.70 0.69 0.68 0.70 0.75 0.80 0.73 0.72 0.78 0.84 0.80 0.89 0.99 1.09 1.20 1.31 1.32 1.38 1.44 1.43 1.55 1.59 1.68 1.76 1.80 1.75 1.54 1.35 1.21 1.21 1.22 1.20 1.17 1.09 1.14 1.19 1.08
1.01 0.97 0.81 0.66 0.56 0.52 0.48 0.44 0.43 0.45 0.47 0.52 0.51 0.50 0.57 0.71 0.72 0.78 0.82 0.82 0.93 1.05 1.12 1.18 1.18 1.19 1.30 1.38 1.44 1.53 1.66 1.69 1.58 1.40 1.28 1.21 1.11 1.12 1.27 1.31 1.29 1.21 1.21
0.65 0.66 0.59 0.49 0.45 0.42 0.37 0.37 0.35 0.39 0.40 0.41 0.42 0.44 0.46 0.56 0.69 0.72 0.72 0.70 0.71 0.75 0.81 0.86 0.92 0.99 1.15 1.21 1.23 1.33 1.48 1.52 1.60 1.48 1.38 1.31 1.16 1.08 1.25 1.27 1.33 1.50 1.41
0.43 0.46 0.44 0.39 0.38 0.38 0.39 0.40 0.37 0.37 0.38 0.36 0.33 0.34 0.42 0.53 0.62 0.69 0.70 0.67 0.66 0.69 0.72 0.72 0.73 0.77 0.88 1.01 1.10 1.27 1.42 1.53 1.57 1.51 1.48 1.43 1.35 1.24 1.31 1.41 1.47 1.57 1.60
0.32 0.34 0.39 0.40 0.39 0.35 0.36 0.35 0.35 0.35 0.33 0.29 0.26 0.28 0.35 0.42 0.47 0.61 0.64 0.64 0.67 0.65 0.67 0.70 0.70 0.70 0.71 0.75 0.74 0.93 1.13 1.36 1.45 1.50 1.51 1.54 1.48 1.43 1.37 1.50 1.57 1.68 1.78
0.23 0.23 0.30 0.36 0.37 0.38 0.34 0.31 0.30 0.31 0.30 0.28 0.25 0.25 0.26 0.25 0.39 0.47 0.53 0.61 0.68 0.73 0.72 0.73 0.71 0.68 0.73 0.71 0.68 0.70 0.82 0.97 1.14 1.25 1.32 1.38 1.43 1.53 1.64 1.63 1.60 1.66 1.72
0.21 0.24 0.29 0.31 0.28 0.31 0.31 0.26 0.22 0.24 0.25 0.25 0.25 0.25 0.26 0.25 0.27 0.29 0.42 0.55 0.68 0.72 0.72 0.82 0.86 0.78 0.79 0.81 0.82 0.75 0.68 0.69 0.84 1.05 1.17 1.22 1.28 1.36 1.58 1.62 1.63 1.66 1.58
0.22 0.24 0.27 0.27 0.27 0.25 0.26 0.23 0.19 0.21 0.23 0.24 0.30 0.30 0.27 0.23 0.22 0.21 0.29 0.45 0.59 0.63 0.63 0.75 0.99 1.02 0.91 0.86 0.89 0.96 0.86 0.71 0.71 0.77 0.94 1.09 1.13 1.27 1.58 1.80 1.74 1.53 1.48
0.25 0.24 0.24 0.24 0.26 0.25 0.22 0.20 0.19 0.22 0.24 0.24 0.25 0.27 0.26 0.24 0.24 0.23 0.26 0.37 0.48 0.52 0.53 0.65 0.81 0.95 0.90 0.87 0.85 0.91 0.93 0.82 0.77 0.80 0.76 0.83 0.96 1.14 1.38 1.64 1.75 1.70 1.53
0.26 0.26 0.26 0.23 0.22 0.24 0.23 0.22 0.21 0.24 0.26 0.26 0.25 0.23 0.22 0.22 0.23 0.25 0.25 0.30 0.35 0.34 0.41 0.57 0.75 0.73 0.69 0.76 0.84 0.94 1.02 0.86 0.77 0.86 0.84 0.86 0.88 1.06 1.39 1.60 1.73 1.72 1.59
0.29 0.32 0.33 0.29 0.27 0.30 0.31 0.29 0.27 0.27 0.29 0.29 0.27 0.25 0.24 0.24 0.25 0.26 0.28 0.28 0.32 0.33 0.38 0.51 0.56 0.53 0.52 0.61 0.72 0.82 0.96 0.83 0.83 0.97 1.01 0.98 1.04 1.08 1.19 1.33 1.54 1.67 1.60
0.33 0.35 0.36 0.36 0.35 0.36 0.37 0.37 0.36 0.34 0.35 0.36 0.36 0.33 0.31 0.30 0.28 0.27 0.31 0.32 0.34 0.35 0.40 0.45 0.44 0.42 0.43 0.48 0.52 0.62 0.75 0.83 0.90 1.03 1.10 1.07 1.02 1.06 1.11 1.15 1.25 1.36 1.36
0.36 0.36 0.37 0.39 0.39 0.38 0.39 0.40 0.40 0.36 0.34 0.36 0.38 0.38 0.39 0.35 0.31 0.29 0.30 0.33 0.35 0.36 0.38 0.43 0.45 0.46 0.48 0.46 0.47 0.55 0.69 0.86 1.04 1.05 0.97 0.94 0.96 1.00 1.01 1.12 1.19 1.23 1.25
0.38 0.40 0.39 0.38 0.38 0.38 0.38 0.38 0.36 0.35 0.33 0.34 0.38 0.38 0.37 0.36 0.30 0.28 0.30 0.33 0.37 0.38 0.42 0.45 0.47 0.50 0.50 0.46 0.52 0.64 0.78 0.97 1.06 0.99 0.92 0.80 0.80 0.92 0.97 0.98 1.02 1.04 1.08
0.40 0.40 0.39 0.37 0.34 0.34 0.35 0.35 0.35 0.33 0.36 0.38 0.40 0.43 0.39 0.35 0.37 0.39 0.38 0.35 0.35 0.36 0.40 0.47 0.52 0.57 0.61 0.66 0.75 0.82 0.83 0.86 0.92 0.84 0.88 0.81 0.75 0.80 0.83 0.83 0.84 0.81 0.82
0.38 0.38 0.36 0.37 0.35 0.32 0.32 0.35 0.39 0.41 0.43 0.38 0.38 0.39 0.38 0.35 0.39 0.36 0.37 0.38 0.38 0.41 0.45 0.50 0.57 0.66 0.72 0.80 0.86 0.86 0.84 0.83 0.85 0.83 0.81 0.79 0.71 0.70 0.71 0.72 0.76 0.79 0.82
0.38 0.36 0.35 0.37 0.37 0.35 0.35 0.36 0.37 0.37 0.36 0.33 0.32 0.32 0.33 0.35 0.33 0.34 0.36 0.37 0.38 0.41 0.42 0.51 0.70 0.75 0.74 0.79 0.84 0.83 0.74 0.68 0.68 0.70 0.68 0.66 0.62 0.61 0.64 0.65 0.66 0.72 0.73
0.48 0.51 0.46 0.41 0.41 0.42 0.42 0.39 0.37 0.37 0.37 0.34 0.30 0.29 0.30 0.31 0.31 0.31 0.35 0.37 0.35 0.35 0.35 0.43 0.57 0.61 0.66 0.72 0.72 0.69 0.63 0.57 0.56 0.55 0.54 0.54 0.55 0.56 0.56 0.59 0.59 0.59 0.64
0.45 0.49 0.51 0.49 0.46 0.44 0.42 0.39 0.37 0.35 0.35 0.37 0.36 0.35 0.36 0.36 0.36 0.37 0.37 0.33 0.32 0.34 0.36 0.43 0.48 0.53 0.55 0.56 0.56 0.56 0.55 0.56 0.55 0.54 0.53 0.55 0.55 0.55 0.53 0.50 0.53 0.58 0.58
0.40 0.46 0.49 0.47 0.47 0.47 0.44 0.41 0.42 0.40 0.40 0.41 0.37 0.39 0.40 0.38 0.36 0.36 0.36 0.35 0.35 0.35 0.35 0.36 0.40 0.43 0.46 0.48 0.50 0.51 0.52 0.55 0.56 0.55 0.53 0.55 0.58 0.58 0.56 0.53 0.52 0.53 0.55
0.37 0.40 0.45 0.44 0.44 0.46 0.49 0.48 0.49 0.47 0.45 0.45 0.46 0.49 0.48 0.42 0.40 0.39 0.39 0.38 0.38 0.37 0.36 0.35 0.36 0.40 0.44 0.49 0.53 0.55 0.54 0.55 0.57 0.58 0.59 0.59 0.61 0.62 0.61 0.59 0.57 0.56 0.56
0.41 0.39 0.39 0.41 0.42 0.43 0.46 0.46 0.47 0.45 0.44 0.46 0.49 0.52 0.53 0.47 0.45 0.45 0.45 0.41 0.37 0.36 0.37 0.37 0.38 0.41 0.45 0.48 0.54 0.58 0.60 0.63 0.66 0.69 0.69 0.68 0.68 0.67 0.66 0.65 0.64 0.64 0.63
0.41 0.42 0.42 0.41 0.39 0.43 0.43 0.42 0.45 0.46 0.47 0.48 0.48 0.48 0.46 0.46 0.46 0.45 0.46 0.45 0.43 0.42 0.43 0.44 0.43 0.45 0.48 0.52 0.56 0.62 0.64 0.67 0.74 0.82 0.86 0.83 0.79 0.76 0.75 0.73 0.71 0.73 0.73
0.37 0.41 0.40 0.39 0.40 0.39 0.38 0.39 0.41 0.43 0.42 0.44 0.46 0.46 0.47 0.47 0.47 0.47 0.48 0.47 0.46 0.45 0.46 0.50 0.50 0.49 0.51 0.54 0.57 0.62 0.68 0.73 0.78 0.84 0.91 0.93 0.86 0.80 0.78 0.76 0.73 0.73 0.77
0.32 0.36 0.38 0.39 0.41 0.42 0.41 0.42 0.42 0.42 0.41 0.41 0.42 0.43 0.44 0.45 0.47 0.48 0.50 0.51 0.50 0.48 0.48 0.51 0.54 0.55 0.55 0.56 0.58 0.62 0.72 0.78 0.77 0.77 0.81 0.88 0.86 0.81 0.79 0.79 0.78 0.78 0.81
0.33 0.34 0.37 0.39 0.41 0.42 0.43 0.43 0.42 0.44 0.44 0.42 0.44 0.48 0.49 0.49 0.49 0.48 0.50 0.50 0.50 0.48 0.46 0.46 0.46 0.49 0.52 0.53 0.55 0.62 0.69 0.67 0.69 0.75 0.76 0.81 0.87 0.86 0.85 0.87 0.86 0.86 0.86

GEFSGL_prec_meanprecacc_252.txt.gz
Total_Precipitation_Accumulation
1.11 1.20 1.23 1.06 0.82 0.72 0.72 0.71 0.70 0.73 0.78 0.83 0.76 0.74 0.81 0.85 0.81 0.91 1.02 1.12 1.23 1.33 1.34 1.40 1.48 1.47 1.62 1.65 1.72 1.80 1.83 1.80 1.59 1.38 1.24 1.25 1.26 1.22 1.18 1.09 1.14 1.19 1.09
1.03 0.99 0.83 0.67 0.57 0.54 0.51 0.47 0.46 0.48 0.49 0.53 0.53 0.52 0.59 0.72 0.73 0.79 0.85 0.85 0.94 1.07 1.15 1.20 1.21 1.23 1.34 1.42 1.49 1.56 1.68 1.73 1.63 1.46 1.33 1.25 1.13 1.13 1.27 1.31 1.29 1.21 1.21
0.65 0.67 0.60 0.51 0.47 0.45 0.40 0.39 0.37 0.41 0.41 0.42 0.43 0.46 0.48 0.57 0.70 0.74 0.74 0.73 0.73 0.77 0.83 0.89 0.94 1.03 1.19 1.24 1.27 1.36 1.50 1.55 1.65 1.53 1.43 1.34 1.18 1.11 1.26 1.28 1.34 1.50 1.41
0.43 0.46 0.45 0.41 0.41 0.43 0.41 0.41 0.38 0.38 0.39 0.37 0.35 0.36 0.43 0.54 0.63 0.71 0.72 0.69 0.68 0.71 0.74 0.73 0.74 0.80 0.91 1.05 1.13 1.30 1.45 1.58 1.64 1.57 1.52 1.47 1.39 1.27 1.33 1.43 1.48 1.58 1.61
0.33 0.34 0.39 0.41 0.40 0.39 0.39 0.37 0.36 0.36 0.34 0.29 0.27 0.30 0.37 0.44 0.50 0.64 0.66 0.67 0.71 0.68 0.70 0.72 0.72 0.72 0.75 0.80 0.79 0.96 1.17 1.41 1.52 1.56 1.55 1.57 1.52 1.46 1.39 1.52 1.58 1.70 1.79
0.23 0.24 0.31 0.37 0.38 0.39 0.35 0.33 0.31 0.32 0.31 0.29 0.26 0.27 0.28 0.28 0.44 0.52 0.57 0.64 0.71 0.77 0.76 0.76 0.73 0.70 0.76 0.74 0.71 0.73 0.85 1.00 1.18 1.30 1.36 1.41 1.47 1.56 1.67 1.67 1.64 1.69 1.74
0.21 0.24 0.29 0.31 0.29 0.32 0.33 0.28 0.23 0.26 0.26 0.26 0.27 0.27 0.28 0.27 0.29 0.31 0.45 0.59 0.70 0.74 0.74 0.86 0.89 0.80 0.81 0.83 0.84 0.77 0.71 0.71 0.86 1.07 1.20 1.24 1.31 1.38 1.62 1.67 1.67 1.70 1.60
0.23 0.24 0.27 0.28 0.27 0.26 0.27 0.24 0.21 0.24 0.27 0.27 0.32 0.32 0.29 0.24 0.24 0.22 0.31 0.47 0.61 0.65 0.66 0.77 1.02 1.04 0.93 0.89 0.93 1.00 0.89 0.72 0.72 0.78 0.96 1.11 1.14 1.28 1.61 1.83 1.78 1.57 1.51
0.26 0.24 0.24 0.25 0.27 0.27 0.23 0.21 0.20 0.24 0.27 0.26 0.28 0.30 0.28 0.26 0.25 0.25 0.28 0.39 0.51 0.54 0.56 0.67 0.83 0.96 0.92 0.89 0.89 0.97 0.98 0.85 0.79 0.81 0.78 0.86 0.99 1.16 1.41 1.67 1.79 1.73 1.56
0.27 0.27 0.26 0.24 0.22 0.25 0.24 0.24 0.22 0.25 0.28 0.29 0.28 0.25 0.24 0.24 0.26 0.27 0.28 0.32 0.37 0.37 0.43 0.60 0.78 0.76 0.73 0.78 0.87 0.98 1.08 0.91 0.81 0.89 0.86 0.88 0.90 1.09 1.42 1.62 1.75 1.74 1.62
0.31 0.34 0.33 0.29 0.27 0.31 0.32 0.31 0.28 0.28 0.31 0.32 0.30 0.27 0.26 0.26 0.28 0.29 0.31 0.30 0.34 0.35 0.40 0.53 0.58 0.55 0.55 0.64 0.75 0.85 1.00 0.89 0.90 1.03 1.05 1.01 1.08 1.11 1.21 1.35 1.56 1.70 1.63
0.34 0.36 0.37 0.37 0.36 0.37 0.39 0.39 0.38 0.36 0.36 0.38 0.39 0.36 0.33 0.32 0.30 0.30 0.33 0.35 0.37 0.38 0.43 0.47 0.47 0.45 0.46 0.50 0.54 0.65 0.79 0.90 0.99 1.12 1.17 1.12 1.06 1.10 1.15 1.18 1.28 1.39 1.39
0.38 0.38 0.39 0.41 0.41 0.39 0.40 0.42 0.42 0.38 0.37 0.38 0.40 0.41 0.41 0.38 0.34 0.32 0.32 0.35 0.38 0.39 0.41 0.47 0.49 0.50 0.51 0.49 0.49 0.58 0.73 0.90 1.09 1.13 1.04 0.98 1.01 1.04 1.05 1.16 1.23 1.26 1.27
0.42 0.42 0.41 0.41 0.40 0.39 0.39 0.39 0.38 0.38 0.35 0.36 0.40 0.41 0.41 0.39 0.33 0.30 0.32 0.34 0.38 0.40 0.44 0.48 0.49 0.52 0.51 0.48 0.53 0.66 0.80 1.00 1.09 1.04 0.99 0.85 0.84 0.97 1.02 1.03 1.06 1.07 1.11
0.45 0.45 0.44 0.41 0.38 0.38 0.37 0.37 0.37 0.36 0.39 0.41 0.42 0.45 0.42 0.38 0.39 0.42 0.40 0.36 0.36 0.37 0.41 0.48 0.53 0.58 0.62 0.67 0.75 0.83 0.84 0.89 0.94 0.88 0.93 0.86 0.80 0.84 0.88 0.88 0.89 0.85 0.86
0.43 0.44 0.43 0.44 0.41 0.38 0.37 0.37 0.41 0.43 0.46 0.41 0.41 0.42 0.40 0.38 0.43 0.40 0.41 0.42 0.41 0.43 0.47 0.51 0.58 0.67 0.73 0.81 0.87 0.86 0.84 0.85 0.87 0.85 0.85 0.84 0.77 0.76 0.77 0.78 0.81 0.83 0.86
0.41 0.38 0.38 0.41 0.42 0.40 0.40 0.39 0.39 0.39 0.38 0.36 0.34 0.35 0.35 0.37 0.36 0.37 0.39 0.40 0.42 0.44 0.44 0.53 0.72 0.76 0.75 0.80 0.85 0.85 0.75 0.69 0.71 0.73 0.71 0.70 0.68 0.68 0.72 0.72 0.74 0.78 0.78
0.50 0.52 0.47 0.42 0.43 0.44 0.44 0.40 0.38 0.38 0.39 0.36 0.33 0.32 0.32 0.33 0.33 0.34 0.38 0.40 0.38 0.37 0.37 0.45 0.59 0.63 0.67 0.73 0.73 0.71 0.65 0.59 0.59 0.58 0.57 0.58 0.60 0.63 0.65 0.68 0.67 0.67 0.70
0.45 0.50 0.51 0.50 0.47 0.45 0.43 0.40 0.38 0.36 0.36 0.38 0.38 0.37 0.39 0.39 0.39 0.40 0.40 0.36 0.34 0.36 0.38 0.45 0.50 0.55 0.57 0.57 0.57 0.57 0.58 0.59 0.58 0.57 0.57 0.58 0.59 0.60 0.60 0.58 0.61 0.65 0.64
0.40 0.47 0.50 0.48 0.48 0.48 0.45 0.43 0.43 0.41 0.41 0.42 0.38 0.40 0.42 0.40 0.38 0.38 0.39 0.38 0.38 0.37 0.37 0.38 0.43 0.46 0.48 0.49 0.52 0.54 0.55 0.59 0.60 0.58 0.57 0.59 0.63 0.64 0.61 0.60 0.59 0.59 0.60
0.38 0.41 0.46 0.45 0.45 0.47 0.50 0.49 0.50 0.48 0.46 0.46 0.47 0.50 0.50 0.45 0.43 0.43 0.42 0.41 0.41 0.39 0.38 0.36 0.38 0.41 0.45 0.50 0.55 0.58 0.57 0.59 0.62 0.62 0.63 0.65 0.68 0.69 0.67 0.65 0.64 0.63 0.62
0.42 0.40 0.40 0.42 0.43 0.44 0.47 0.47 0.47 0.46 0.46 0.48 0.51 0.54 0.55 0.49 0.48 0.48 0.48 0.44 0.40 0.39 0.40 0.40 0.40 0.43 0.47 0.50 0.55 0.59 0.62 0.66 0.71 0.74 0.74 0.74 0.76 0.75 0.73 0.71 0.70 0.71 0.70
0.42 0.43 0.43 0.42 0.41 0.44 0.45 0.43 0.46 0.47 0.48 0.50 0.51 0.51 0.49 0.49 0.49 0.47 0.48 0.47 0.45 0.44 0.46 0.47 0.46 0.47 0.50 0.54 0.58 0.63 0.66 0.69 0.77 0.87 0.91 0.89 0.86 0.84 0.82 0.79 0.76 0.78 0.78
0.38 0.42 0.41 0.40 0.41 0.41 0.40 0.41 0.43 0.44 0.44 0.46 0.48 0.49 0.50 0.50 0.51 0.50 0.50 0.49 0.49 0.48 0.48 0.52 0.52 0.51 0.53 0.56 0.59 0.64 0.70 0.75 0.81 0.88 0.95 0.98 0.91 0.85 0.84 0.82 0.79 0.77 0.81
0.33 0.37 0.39 0.40 0.42 0.43 0.43 0.44 0.45 0.44 0.43 0.43 0.44 0.45 0.46 0.48 0.50 0.52 0.53 0.54 0.53 0.51 0.51 0.54 0.56 0.57 0.57 0.58 0.60 0.63 0.74 0.80 0.80 0.80 0.85 0.93 0.91 0.86 0.84 0.83 0.82 0.82 0.84
0.34 0.34 0.38 0.40 0.42 0.43 0.44 0.44 0.45 0.47 0.47 0.45 0.46 0.50 0.51 0.52 0.52 0.51 0.53 0.54 0.54 0.51 0.49 0.48 0.48 0.51 0.54 0.55 0.57 0.64 0.71 0.69 0.72 0.79 0.81 0.87 0.93 0.92 0.90 0.92 0.90 0.90 0.89

GEFSGL_prec_meanprecacc_258.txt.gz
Total_Precipitation_Accumulation
1.13 1.22 1.26 1.08 0.85 0.76 0.75 0.75 0.74 0.76 0.82 0.87 0.80 0.79 0.85 0.89 0.84 0.93 1.05 1.14 1.25 1.36 1.36 1.42 1.49 1.49 1.63 1.67 1.77 1.86 1.90 1.86 1.64 1.42 1.27 1.27 1.27 1.24 1.19 1.10 1.15 1.19 1.09
1.05 1.00 0.85 0.69 0.59 0.58 0.55 0.52 0.50 0.52 0.54 0.59 0.58 0.56 0.62 0.74 0.76 0.82 0.87 0.87 0.97 1.10 1.17 1.22 1.22 1.24 1.36 1.44 1.52 1.61 1.74 1.78 1.68 1.50 1.35 1.26 1.14 1.14 1.28 1.32 1.29 1.21 1.21
0.67 0.68 0.62 0.53 0.49 0.47 0.44 0.43 0.42 0.44 0.45 0.46 0.46 0.49 0.51 0.59 0.72 0.76 0.77 0.76 0.77 0.81 0.86 0.91 0.97 1.06 1.21 1.26 1.28 1.39 1.55 1.60 1.70 1.57 1.45 1.36 1.19 1.12 1.28 1.30 1.34 1.51 1.42
0.45 0.48 0.46 0.43 0.44 0.46 0.45 0.45 0.42 0.40 0.41 0.40 0.39 0.39 0.46 0.56 0.65 0.73 0.74 0.72 0.71 0.75 0.79 0.77 0.77 0.83 0.94 1.08 1.15 1.32 1.49 1.62 1.68 1.60 1.55 1.49 1.40 1.28 1.34 1.45 1.51 1.60 1.62
0.34 0.35 0.41 0.43 0.43 0.41 0.42 0.40 0.40 0.39 0.36 0.33 0.32 0.34 0.41 0.46 0.52 0.66 0.69 0.69 0.73 0.70 0.73 0.75 0.75 0.75 0.78 0.83 0.82 0.99 1.20 1.45 1.56 1.61 1.59 1.59 1.53 1.47 1.39 1.53 1.60 1.72 1.80
0.24 0.25 0.32 0.38 0.39 0.41 0.37 0.35 0.34 0.34 0.34 0.31 0.30 0.31 0.31 0.30 0.46 0.54 0.59 0.66 0.73 0.78 0.77 0.78 0.75 0.73 0.80 0.79 0.75 0.77 0.89 1.04 1.23 1.34 1.40 1.43 1.48 1.57 1.67 1.67 1.65 1.71 1.76
0.22 0.24 0.31 0.33 0.30 0.34 0.34 0.30 0.26 0.28 0.30 0.29 0.30 0.31 0.31 0.29 0.31 0.33 0.47 0.61 0.74 0.77 0.76 0.87 0.90 0.82 0.84 0.86 0.88 0.80 0.74 0.75 0.91 1.12 1.24 1.26 1.33 1.40 1.62 1.67 1.68 1.71 1.62
0.24 0.25 0.29 0.29 0.29 0.27 0.29 0.26 0.23 0.26 0.29 0.30 0.35 0.34 0.31 0.27 0.27 0.25 0.34 0.50 0.65 0.69 0.69 0.79 1.03 1.05 0.94 0.91 0.96 1.02 0.91 0.76 0.76 0.82 0.99 1.13 1.17 1.31 1.63 1.85 1.79 1.59 1.53
0.28 0.26 0.25 0.26 0.28 0.29 0.25 0.24 0.22 0.26 0.29 0.28 0.30 0.32 0.30 0.28 0.28 0.27 0.31 0.42 0.53 0.57 0.59 0.71 0.86 0.98 0.94 0.91 0.91 0.98 1.00 0.87 0.83 0.85 0.82 0.90 1.02 1.19 1.44 1.70 1.80 1.74 1.57
0.28 0.28 0.28 0.26 0.24 0.26 0.25 0.26 0.25 0.27 0.30 0.31 0.30 0.27 0.26 0.26 0.28 0.30 0.32 0.35 0.40 0.40 0.46 0.64 0.82 0.80 0.77 0.82 0.88 0.99 1.09 0.92 0.83 0.92 0.89 0.92 0.94 1.12 1.44 1.64 1.76 1.75 1.62
0.32 0.35 0.35 0.32 0.30 0.33 0.34 0.33 0.31 0.30 0.33 0.33 0.31 0.29 0.28 0.28 0.30 0.32 0.33 0.32 0.36 0.37 0.42 0.56 0.61 0.58 0.58 0.67 0.77 0.87 1.02 0.90 0.91 1.06 1.09 1.05 1.11 1.15 1.24 1.37 1.58 1.71 1.64
0.36 0.37 0.38 0.38 0.38 0.40 0.42 0.42 0.41 0.39 0.38 0.39 0.40 0.37 0.35 0.33 0.31 0.31 0.35 0.36 0.39 0.39 0.44 0.49 0.49 0.47 0.48 0.53 0.56 0.66 0.81 0.92 1.00 1.14 1.20 1.16 1.11 1.14 1.17 1.20 1.30 1.41 1.40
0.39 0.39 0.40 0.42 0.42 0.41 0.42 0.44 0.45 0.42 0.40 0.40 0.42 0.42 0.43 0.40 0.35 0.34 0.34 0.37 0.39 0.40 0.43 0.48 0.51 0.53 0.54 0.51 0.51 0.60 0.74 0.91 1.10 1.14 1.06 1.00 1.04 1.08 1.08 1.19 1.26 1.28 1.29
0.43 0.43 0.42 0.41 0.41 0.41 0.41 0.41 0.40 0.40 0.38 0.40 0.42 0.43 0.42 0.41 0.34 0.32 0.33 0.36 0.39 0.41 0.45 0.49 0.51 0.53 0.54 0.50 0.55 0.67 0.81 1.01 1.10 1.04 1.00 0.86 0.86 1.00 1.07 1.07 1.10 1.10 1.13
0.47 0.46 0.45 0.42 0.39 0.39 0.38 0.38 0.38 0.38 0.41 0.44 0.45 0.47 0.44 0.39 0.40 0.44 0.42 0.38 0.38 0.39 0.43 0.49 0.53 0.59 0.62 0.68 0.77 0.84 0.85 0.89 0.95 0.88 0.93 0.87 0.81 0.87 0.92 0.92 0.94 0.91 0.89
0.45 0.45 0.44 0.46 0.43 0.40 0.39 0.41 0.44 0.46 0.49 0.44 0.44 0.44 0.41 0.39 0.44 0.41 0.43 0.45 0.44 0.46 0.50 0.52 0.59 0.68 0.74 0.81 0.87 0.87 0.85 0.85 0.88 0.85 0.85 0.85 0.79 0.78 0.79 0.81 0.86 0.89 0.91
0.42 0.40 0.40 0.43 0.44 0.43 0.43 0.43 0.44 0.44 0.43 0.39 0.38 0.39 0.38 0.39 0.38 0.39 0.41 0.43 0.45 0.49 0.50 0.57 0.74 0.77 0.75 0.80 0.85 0.85 0.75 0.70 0.71 0.73 0.72 0.71 0.69 0.70 0.74 0.75 0.77 0.82 0.83
0.50 0.53 0.48 0.44 0.44 0.46 0.46 0.44 0.43 0.44 0.44 0.41 0.37 0.36 0.36 0.36 0.37 0.37 0.41 0.42 0.40 0.41 0.42 0.50 0.63 0.66 0.68 0.74 0.73 0.71 0.66 0.60 0.60 0.59 0.58 0.58 0.61 0.65 0.67 0.70 0.70 0.70 0.74
0.46 0.50 0.52 0.50 0.48 0.46 0.45 0.42 0.40 0.39 0.40 0.42 0.41 0.40 0.42 0.42 0.42 0.43 0.44 0.39 0.38 0.40 0.42 0.48 0.53 0.58 0.60 0.59 0.59 0.59 0.59 0.61 0.59 0.58 0.58 0.59 0.61 0.63 0.62 0.61 0.64 0.68 0.67
0.40 0.47 0.50 0.49 0.48 0.49 0.46 0.44 0.45 0.43 0.43 0.44 0.40 0.42 0.45 0.43 0.41 0.41 0.42 0.41 0.42 0.42 0.42 0.42 0.47 0.49 0.51 0.52 0.54 0.56 0.57 0.61 0.61 0.59 0.58 0.60 0.64 0.66 0.65 0.64 0.63 0.63 0.63
0.38 0.41 0.46 0.46 0.45 0.48 0.51 0.50 0.52 0.51 0.48 0.48 0.49 0.52 0.52 0.47 0.46 0.46 0.46 0.45 0.44 0.43 0.42 0.41 0.42 0.45 0.49 0.54 0.59 0.61 0.59 0.61 0.64 0.63 0.64 0.66 0.69 0.70 0.69 0.68 0.68 0.67 0.66
0.42 0.40 0.40 0.42 0.44 0.44 0.47 0.48 0.48 0.47 0.47 0.50 0.53 0.56 0.56 0.51 0.50 0.51 0.51 0.48 0.44 0.43 0.44 0.44 0.44 0.46 0.50 0.53 0.59 0.64 0.66 0.70 0.74 0.77 0.76 0.76 0.78 0.77 0.76 0.74 0.74 0.75 0.74
0.42 0.44 0.43 0.42 0.41 0.45 0.45 0.44 0.47 0.48 0.50 0.52 0.52 0.52 0.51 0.50 0.50 0.49 0.50 0.50 0.48 0.47 0.49 0.50 0.49 0.50 0.53 0.57 0.61 0.66 0.69 0.71 0.80 0.89 0.93 0.90 0.88 0.86 0.84 0.82 0.80 0.82 0.82
0.38 0.42 0.41 0.41 0.42 0.42 0.41 0.42 0.44 0.45 0.45 0.48 0.49 0.50 0.51 0.51 0.52 0.52 0.53 0.52 0.51 0.51 0.51 0.55 0.56 0.54 0.55 0.58 0.62 0.66 0.72 0.78 0.84 0.90 0.97 0.99 0.93 0.87 0.87 0.85 0.81 0.81 0.86
0.34 0.38 0.40 0.41 0.43 0.44 0.44 0.45 0.45 0.45 0.44 0.44 0.45 0.46 0.47 0.49 0.51 0.54 0.56 0.58 0.57 0.55 0.55 0.58 0.60 0.60 0.60 0.60 0.62 0.65 0.77 0.83 0.82 0.82 0.87 0.94 0.92 0.88 0.86 0.86 0.85 0.85 0.88
0.35 0.35 0.38 0.41 0.43 0.44 0.45 0.45 0.46 0.48 0.48 0.46 0.48 0.52 0.53 0.53 0.53 0.53 0.55 0.57 0.58 0.55 0.53 0.52 0.52 0.54 0.56 0.57 0.60 0.67 0.74 0.72 0.75 0.81 0.83 0.89 0.95 0.94 0.93 0.95 0.93 0.94 0.93

GEFSGL_prec_meanprecacc_264.txt.gz
Total_Precipitation_Accumulation
1.18 1.26 1.28 1.10 0.87 0.78 0.79 0.78 0.77 0.80 0.86 0.91 0.84 0.83 0.88 0.92 0.87 0.96 1.07 1.16 1.27 1.38 1.38 1.43 1.51 1.50 1.64 1.68 1.78 1.88 1.92 1.88 1.67 1.44 1.30 1.30 1.29 1.25 1.22 1.13 1.17 1.21 1.11
1.08 1.04 0.88 0.72 0.62 0.60 0.58 0.55 0.53 0.55 0.57 0.62 0.61 0.59 0.65 0.77 0.79 0.86 0.92 0.92 1.02 1.14 1.20 1.24 1.24 1.26 1.37 1.45 1.53 1.62 1.76 1.81 1.71 1.52 1.38 1.28 1.16 1.16 1.30 1.33 1.30 1.22 1.23
0.70 0.72 0.65 0.56 0.52 0.49 0.46 0.45 0.44 0.47 0.48 0.49 0.49 0.52 0.53 0.61 0.75 0.80 0.81 0.81 0.83 0.86 0.91 0.94 0.99 1.08 1.23 1.27 1.29 1.40 1.56 1.63 1.73 1.60 1.47 1.38 1.21 1.14 1.30 1.31 1.35 1.51 1.43
0.49 0.51 0.49 0.46 0.47 0.48 0.48 0.47 0.44 0.43 0.44 0.43 0.41 0.42 0.50 0.60 0.68 0.76 0.77 0.75 0.74 0.77 0.81 0.80 0.79 0.84 0.96 1.10 1.18 1.34 1.50 1.64 1.72 1.65 1.58 1.52 1.42 1.29 1.36 1.46 1.52 1.60 1.63
0.39 0.39 0.44 0.46 0.46 0.45 0.46 0.44 0.42 0.41 0.39 0.36 0.35 0.38 0.44 0.50 0.55 0.70 0.72 0.72 0.75 0.72 0.74 0.77 0.77 0.77 0.80 0.86 0.85 1.03 1.24 1.48 1.59 1.66 1.65 1.64 1.56 1.48 1.40 1.53 1.61 1.72 1.81
0.29 0.29 0.36 0.41 0.42 0.44 0.41 0.38 0.37 0.37 0.36 0.34 0.33 0.35 0.36 0.33 0.51 0.59 0.63 0.70 0.76 0.80 0.78 0.79 0.76 0.74 0.81 0.80 0.78 0.80 0.92 1.07 1.25 1.37 1.44 1.47 1.51 1.59 1.68 1.68 1.65 1.71 1.76
0.27 0.28 0.33 0.35 0.33 0.36 0.38 0.32 0.27 0.30 0.32 0.31 0.32 0.34 0.34 0.32 0.36 0.38 0.51 0.65 0.77 0.80 0.78 0.88 0.91 0.83 0.84 0.87 0.90 0.82 0.75 0.78 0.93 1.14 1.26 1.29 1.36 1.44 1.65 1.69 1.69 1.72 1.63
0.28 0.29 0.31 0.32 0.31 0.29 0.31 0.28 0.24 0.27 0.31 0.32 0.37 0.36 0.34 0.30 0.31 0.30 0.38 0.53 0.67 0.71 0.71 0.81 1.04 1.06 0.95 0.92 0.98 1.04 0.93 0.77 0.77 0.83 1.01 1.15 1.20 1.35 1.68 1.88 1.82 1.60 1.54
0.32 0.30 0.29 0.30 0.31 0.31 0.26 0.25 0.24 0.27 0.31 0.30 0.31 0.33 0.31 0.30 0.31 0.31 0.34 0.44 0.55 0.58 0.61 0.73 0.88 1.00 0.96 0.94 0.92 0.99 1.00 0.88 0.84 0.86 0.83 0.91 1.05 1.22 1.49 1.75 1.84 1.77 1.58
0.32 0.31 0.31 0.29 0.27 0.28 0.27 0.27 0.26 0.29 0.32 0.33 0.32 0.29 0.27 0.27 0.30 0.33 0.35 0.37 0.41 0.41 0.48 0.65 0.84 0.82 0.79 0.85 0.91 1.00 1.10 0.93 0.85 0.93 0.90 0.93 0.95 1.14 1.48 1.67 1.80 1.79 1.65
0.36 0.38 0.38 0.33 0.32 0.35 0.36 0.34 0.33 0.33 0.36 0.36 0.33 0.31 0.30 0.29 0.32 0.34 0.36 0.34 0.37 0.39 0.44 0.57 0.62 0.60 0.60 0.70 0.80 0.89 1.03 0.93 0.93 1.07 1.11 1.06 1.12 1.16 1.26 1.40 1.61 1.75 1.67
0.39 0.40 0.40 0.39 0.38 0.41 0.44 0.44 0.43 0.41 0.41 0.42 0.42 0.39 0.36 0.35 0.33 0.33 0.37 0.38 0.41 0.41 0.46 0.51 0.51 0.49 0.51 0.56 0.60 0.69 0.84 0.95 1.03 1.17 1.22 1.18 1.12 1.15 1.19 1.22 1.32 1.43 1.43
0.41 0.41 0.41 0.43 0.43 0.41 0.43 0.46 0.47 0.44 0.42 0.42 0.44 0.44 0.45 0.41 0.37 0.35 0.36 0.39 0.43 0.43 0.45 0.50 0.53 0.55 0.56 0.53 0.55 0.62 0.76 0.93 1.12 1.16 1.08 1.02 1.05 1.10 1.10 1.21 1.28 1.31 1.31
0.45 0.45 0.43 0.42 0.42 0.41 0.42 0.42 0.41 0.41 0.40 0.41 0.44 0.44 0.43 0.42 0.35 0.33 0.35 0.38 0.42 0.44 0.48 0.51 0.53 0.55 0.55 0.51 0.58 0.69 0.82 1.02 1.11 1.06 1.02 0.88 0.87 1.02 1.08 1.10 1.13 1.13 1.16
0.49 0.48 0.46 0.42 0.39 0.39 0.39 0.39 0.39 0.39 0.43 0.46 0.47 0.49 0.45 0.41 0.42 0.46 0.44 0.40 0.39 0.41 0.46 0.52 0.57 0.62 0.65 0.70 0.79 0.86 0.86 0.89 0.95 0.89 0.94 0.88 0.83 0.88 0.93 0.94 0.96 0.93 0.91
0.47 0.47 0.45 0.46 0.43 0.40 0.39 0.41 0.44 0.46 0.50 0.46 0.47 0.47 0.43 0.41 0.46 0.44 0.44 0.46 0.46 0.49 0.53 0.56 0.63 0.72 0.78 0.84 0.90 0.89 0.86 0.87 0.89 0.87 0.87 0.85 0.80 0.79 0.81 0.82 0.87 0.91 0.93
0.44 0.42 0.41 0.44 0.44 0.44 0.44 0.43 0.45 0.44 0.43 0.40 0.39 0.40 0.40 0.41 0.40 0.40 0.43 0.44 0.47 0.51 0.53 0.61 0.77 0.81 0.78 0.83 0.87 0.87 0.77 0.71 0.72 0.74 0.73 0.72 0.70 0.71 0.75 0.76 0.78 0.84 0.85
0.51 0.54 0.49 0.44 0.45 0.46 0.46 0.44 0.43 0.44 0.44 0.41 0.37 0.37 0.37 0.38 0.38 0.38 0.42 0.43 0.42 0.43 0.45 0.54 0.67 0.70 0.72 0.77 0.76 0.73 0.67 0.61 0.61 0.60 0.59 0.60 0.63 0.66 0.68 0.72 0.71 0.71 0.76
0.46 0.51 0.52 0.51 0.48 0.47 0.45 0.42 0.41 0.39 0.40 0.43 0.42 0.41 0.43 0.43 0.43 0.45 0.45 0.40 0.39 0.41 0.44 0.51 0.57 0.61 0.63 0.63 0.63 0.62 0.62 0.63 0.61 0.60 0.60 0.61 0.63 0.64 0.64 0.62 0.65 0.70 0.69
0.41 0.48 0.51 0.49 0.49 0.49 0.46 0.45 0.46 0.43 0.43 0.44 0.41 0.43 0.46 0.44 0.42 0.42 0.43 0.42 0.43 0.43 0.43 0.44 0.50 0.53 0.54 0.56 0.58 0.60 0.61 0.64 0.63 0.62 0.60 0.63 0.67 0.69 0.67 0.66 0.65 0.65 0.65
0.39 0.42 0.47 0.46 0.45 0.48 0.51 0.50 0.52 0.51 0.48 0.49 0.49 0.53 0.53 0.48 0.46 0.47 0.47 0.46 0.46 0.45 0.44 0.43 0.44 0.48 0.52 0.57 0.62 0.65 0.64 0.65 0.67 0.66 0.67 0.69 0.71 0.73 0.72 0.71 0.70 0.69 0.68
0.43 0.41 0.41 0.43 0.44 0.45 0.48 0.48 0.49 0.48 0.48 0.50 0.53 0.56 0.57 0.51 0.50 0.52 0.52 0.49 0.46 0.45 0.47 0.47 0.46 0.49 0.53 0.56 0.62 0.66 0.69 0.73 0.77 0.80 0.80 0.79 0.82 0.81 0.79 0.77 0.76 0.76 0.75
0.43 0.44 0.44 0.43 0.42 0.46 0.46 0.44 0.47 0.49 0.50 0.52 0.52 0.52 0.51 0.51 0.51 0.50 0.51 0.51 0.50 0.49 0.51 0.52 0.52 0.52 0.56 0.59 0.63 0.69 0.71 0.74 0.83 0.93 0.97 0.94 0.92 0.90 0.88 0.85 0.82 0.84 0.84
0.39 0.43 0.42 0.41 0.42 0.43 0.42 0.42 0.45 0.46 0.46 0.48 0.50 0.50 0.51 0.52 0.52 0.52 0.53 0.53 0.52 0.52 0.53 0.57 0.58 0.56 0.57 0.60 0.64 0.69 0.75 0.81 0.87 0.94 1.01 1.03 0.96 0.90 0.90 0.87 0.84 0.83 0.87
0.34 0.39 0.41 0.42 0.44 0.45 0.45 0.46 0.46 0.46 0.44 0.44 0.46 0.47 0.48 0.50 0.52 0.54 0.57 0.58 0.58 0.56 0.56 0.59 0.61 0.62 0.62 0.63 0.65 0.68 0.80 0.87 0.87 0.88 0.92 0.99 0.96 0.91 0.89 0.89 0.88 0.87 0.90
0.36 0.36 0.40 0.42 0.44 0.45 0.45 0.46 0.46 0.48 0.48 0.46 0.48 0.52 0.53 0.54 0.54 0.54 0.56 0.57 0.58 0.56 0.54 0.53 0.53 0.56 0.58 0.60 0.62 0.69 0.77 0.75 0.79 0.86 0.89 0.94 1.00 0.97 0.96 0.97 0.95 0.95 0.94